PA3CPS Weather Reports


time (UTC)temp
C
wind
direction
speed
KPH
gust
KPH
rain 1hr
cm
rain 24hr
cm
rain mn
cm
humidity
%
barometer
mb
20260506102831 11 339 14.5 20.9 0.00 0.00 0.00 74 1008.3
20260506102332 11 4 9.7 25.7 0.00 0.00 0.00 75 1008.4
20260506101831 11 353 12.9 25.7 0.00 0.00 0.00 76 1008.4
20260506101332 11 337 9.7 20.9 0.00 0.00 0.00 77 1008.3
20260506100832 11 352 11.3 19.3 0.00 0.00 0.00 77 1008.3
20260506100332 11 20 9.7 27.4 0.00 0.00 0.00 76 1008.2
20260506095831 11 13 11.3 27.4 0.00 0.00 0.00 75 1008.2
20260506095332 11 356 8.0 24.1 0.00 0.00 0.00 76 1008.2
20260506094832 11 13 9.7 24.1 0.00 0.00 0.00 74 1008.2
20260506094331 11 2 14.5 22.5 0.00 0.00 0.00 74 1008.1
20260506093832 11 9 11.3 22.5 0.00 0.00 0.00 74 1008.2
20260506093331 11 12 9.7 22.5 0.00 0.00 0.00 74 1008.1
20260506092833 11 335 14.5 20.9 0.00 0.00 0.00 75 1008.0
20260506092333 11 2 9.7 20.9 0.00 0.00 0.00 76 1008.2
20260506091832 11 316 12.9 20.9 0.00 0.00 0.00 77 1008.1
20260506091331 11 7 9.7 20.9 0.00 0.00 0.00 76 1008.0
20260506090830 11 23 12.9 20.9 0.00 0.00 0.00 77 1008.1
20260506090331 10 19 11.3 19.3 0.00 0.00 0.00 76 1008.0
20260506085831 10 356 9.7 20.9 0.00 0.00 0.00 76 1007.9
20260506085331 10 0 9.7 20.9 0.00 0.00 0.00 77 1007.7
20260506084831 10 18 9.7 19.3 0.00 0.00 0.00 77 1007.6
20260506084332 10 10 6.4 20.9 0.00 0.00 0.00 76 1007.7
20260506083831 10 356 9.7 20.9 0.00 0.00 0.00 77 1007.6
20260506083332 10 4 11.3 19.3 0.00 0.00 0.00 77 1007.7
20260506082831 10 17 11.3 17.7 0.00 0.00 0.00 77 1007.6
20260506082331 10 8 8.0 17.7 0.00 0.00 0.00 78 1007.7
20260506081832 10 310 12.9 17.7 0.00 0.00 0.00 78 1007.7
20260506081331 10 7 11.3 17.7 0.00 0.00 0.00 79 1007.6
20260506080831 10 12 9.7 17.7 0.00 0.00 0.00 79 1007.6
20260506080331 10 3 6.4 17.7 0.00 0.00 0.00 79 1007.6
20260506073331 10 356 6.4 19.3 0.00 0.00 0.00 74 1007.5
20260506072831 10 10 8.0 19.3 0.00 0.00 0.00 73 1007.5
20260506072331 10 337 6.4 16.1 0.00 0.00 0.00 74 1007.5
20260506071831 10 347 9.7 27.4 0.00 0.00 0.00 75 1007.4
20260506071332 10 66 11.3 29.0 0.00 0.00 0.00 76 1007.4
20260506070830 10 0 11.3 29.0 0.00 0.00 0.00 80 1007.5
20260506070329 10 27 9.7 19.3 0.00 0.00 0.00 82 1007.5
20260506062316 9 1 9.7 20.9 0.00 0.00 0.00 87 1007.2
20260506061815 9 349 9.7 19.3 0.00 0.00 0.00 87 1007.1
20260506061305 9 6 9.7 19.3 0.00 0.00 0.00 88 1007.2
20260506060803 9 352 9.7 17.7 0.00 0.00 0.00 88 1007.0
20260506060305 9 347 9.7 17.7 0.00 0.00 0.00 88 1007.1
20260506051302 9 355 9.7 17.7 0.00 0.00 0.00 89 1006.9
20260506050259 9 320 8.0 14.5 0.00 0.00 0.00 89 1006.8
20260506044756 9 355 9.7 17.7 0.00 0.00 0.00 89 1006.8
20260506044255 9 340 6.4 14.5 0.00 0.00 0.00 89 1006.8
20260506043752 9 308 4.8 11.3 0.00 0.00 0.00 89 1006.8
20260506043252 9 351 4.8 12.9 0.00 0.00 0.00 89 1006.8
20260506042749 9 320 6.4 12.9 0.00 0.00 0.00 88 1006.8
20260506042247 9 316 6.4 12.9 0.00 0.00 0.00 88 1006.7
20260506041746 9 324 4.8 16.1 0.00 0.00 0.00 88 1006.7
20260506041244 9 339 6.4 12.9 0.00 0.00 0.00 88 1006.8
20260506040739 9 339 4.8 11.3 0.00 0.00 0.00 88 1006.8
20260506040240 9 343 4.8 11.3 0.00 0.00 0.00 88 1006.8
20260506035737 9 336 4.8 14.5 0.00 0.00 0.00 88 1006.9
20260506035236 9 341 8.0 14.5 0.00 0.00 0.00 88 1007.0
20260506034728 9 347 8.0 14.5 0.00 0.00 0.00 88 1006.9
20260506034228 9 322 6.4 14.5 0.00 0.00 0.00 88 1007.0
20260506033724 9 23 4.8 14.5 0.00 0.00 0.00 88 1007.0
20260506033223 9 346 6.4 14.5 0.00 0.00 0.00 87 1006.9
20260506032721 9 334 4.8 11.3 0.00 0.00 0.00 87 1007.0
20260506032220 9 351 4.8 14.5 0.00 0.00 0.00 87 1007.1
20260506031719 9 16 6.4 14.5 0.00 0.00 0.00 87 1007.1
20260506031217 9 349 4.8 16.1 0.00 0.00 0.00 87 1007.1
20260506030716 9 257 6.4 16.1 0.00 0.00 0.00 87 1007.2
20260506030216 9 347 3.2 11.3 0.00 0.00 0.00 87 1007.2
20260506025712 9 12 4.8 12.9 0.00 0.00 0.00 87 1007.4
20260506025211 9 333 3.2 12.9 0.00 0.00 0.00 87 1007.4
20260506024710 9 2 4.8 12.9 0.00 0.00 0.00 87 1007.5
20260506024210 9 317 3.2 12.9 0.00 0.00 0.00 87 1007.5
20260506023707 9 339 3.2 12.9 0.00 0.00 0.00 87 1007.4
20260506023208 9 332 6.4 12.9 0.00 0.00 0.00 87 1007.5
20260506022706 9 347 3.2 9.7 0.00 0.00 0.00 87 1007.5
20260506022205 9 341 3.2 9.7 0.00 0.00 0.00 87 1007.6
20260506021705 9 299 1.6 11.3 0.00 0.00 0.00 87 1007.5
20260506021203 9 9 6.4 11.3 0.00 0.00 0.00 87 1007.6
20260506020702 9 2 4.8 11.3 0.00 0.00 0.00 87 1007.6
20260506020201 9 345 6.4 12.9 0.00 0.00 0.00 87 1007.6
20260506015702 9 339 6.4 12.9 0.00 0.00 0.00 87 1007.7
20260506015202 9 326 6.4 12.9 0.00 0.00 0.00 87 1007.7
20260506014702 9 11 4.8 14.5 0.00 0.00 0.00 87 1007.8
20260506014207 9 9 4.8 14.5 0.00 0.00 0.00 87 1007.9
20260506013702 9 358 6.4 12.9 0.00 0.00 0.00 86 1007.9
20260506013205 9 2 4.8 12.9 0.00 0.00 0.00 86 1007.9
20260506012702 9 357 6.4 12.9 0.00 0.00 0.00 86 1007.9
20260506012204 9 0 4.8 14.5 0.00 0.00 0.00 86 1007.9
20260506011702 9 22 4.8 16.1 0.00 0.00 0.00 86 1008.0
20260506011202 9 10 6.4 16.1 0.00 0.00 0.00 86 1007.9
20260506010702 9 310 3.2 12.9 0.00 0.00 0.00 85 1008.1
20260506010202 9 6 6.4 12.9 0.00 0.00 0.00 85 1008.1
20260506005702 9 340 4.8 11.3 0.00 0.00 0.00 85 1008.2
20260506005203 9 10 6.4 16.1 0.00 0.00 0.00 85 1008.2
20260506004702 9 331 9.7 16.1 0.00 0.00 0.00 85 1008.2
20260506004202 9 335 6.4 12.9 0.00 0.00 0.00 85 1008.3
20260506003702 9 358 6.4 16.1 0.00 0.00 0.00 85 1008.2
20260506003200 9 351 6.4 16.1 0.00 0.00 0.00 85 1008.3
20260506002657 9 345 4.8 16.1 0.00 0.00 0.00 84 1008.3
20260506002155 9 356 9.7 16.1 0.00 0.00 0.00 84 1008.3
20260506001653 9 353 8.0 17.7 0.00 0.00 0.00 84 1008.3
20260506001153 9 349 9.7 17.7 0.00 0.00 0.00 84 1008.3
20260506000652 9 18 6.4 17.7 0.00 0.00 0.00 84 1008.4
20260506000149 9 310 8.0 22.5 0.00 0.00 0.00 84 1008.5
20260505235650 9 2 12.9 22.5 0.00 0.00 0.00 84 1008.5
20260505235151 9 36 8.0 16.1 0.00 0.00 0.00 84 1008.5
20260505234648 9 323 8.0 17.7 0.00 0.00 0.00 84 1008.6
20260505234146 9 351 9.7 19.3 0.00 0.00 0.00 84 1008.6
20260505233646 9 353 9.7 19.3 0.00 0.00 0.00 84 1008.6
20260505233144 10 345 8.0 19.3 0.00 0.00 0.00 84 1008.6
20260505232643 9 11 6.4 19.3 0.00 0.00 0.00 84 1008.8
20260505232141 10 345 11.3 17.7 0.00 0.00 0.00 84 1008.7
20260505231638 10 331 6.4 17.7 0.00 0.00 0.00 84 1008.8
20260505231137 10 354 8.0 17.7 0.00 0.00 0.00 84 1008.8
20260505230636 10 298 11.3 16.1 0.00 0.00 0.00 84 1008.8
20260505230135 10 0 8.0 16.1 0.00 0.00 0.00 84 1008.8
20260505225634 10 6 6.4 16.1 0.00 0.00 0.00 84 1008.8
20260505225132 10 8 9.7 19.3 0.00 0.00 0.00 84 1008.7
20260505224631 10 339 6.4 16.1 0.00 0.00 0.00 84 1008.9
20260505224134 10 4 6.4 25.7 0.00 0.00 0.00 85 1008.9
20260505223630 10 13 12.9 25.7 0.00 0.00 0.00 85 1009.0
20260505223127 10 326 11.3 24.1 0.00 0.00 0.00 85 1009.0
20260505222623 10 0 9.7 17.7 0.00 0.00 0.00 85 1009.0
20260505222125 10 4 11.3 17.7 0.00 0.00 0.00 85 1009.2
20260505221621 10 339 8.0 17.7 0.00 0.00 0.00 86 1009.1
20260505221121 10 274 6.4 16.1 0.00 0.00 0.00 86 1009.2
20260505220619 10 338 9.7 17.7 0.00 0.00 0.00 86 1009.1
20260505220110 10 23 8.0 17.7 0.00 0.00 0.00 86 1009.2
20260505215610 10 3 6.4 16.1 0.00 0.00 0.00 86 1009.1
20260505215111 10 16 8.0 19.3 0.00 0.00 0.00 86 1009.2
20260505214610 10 343 9.7 19.3 0.00 0.00 0.00 86 1009.2
20260505214109 10 16 9.7 19.3 0.00 0.00 0.00 86 1009.2
20260505213609 10 335 9.7 17.7 0.00 0.00 0.00 86 1009.3
20260505213106 10 2 9.7 19.3 0.00 0.00 0.00 86 1009.3
20260505212605 10 7 9.7 20.9 0.00 0.00 0.00 86 1009.3
20260505212104 10 349 12.9 20.9 0.00 0.00 0.00 86 1009.2
20260505211604 10 340 11.3 19.3 0.00 0.00 0.00 86 1009.3
20260505211105 10 359 11.3 22.5 0.00 0.00 0.00 85 1009.3
20260505210605 10 344 9.7 22.5 0.00 0.00 0.00 85 1009.3
20260505210107 10 342 9.7 19.3 0.00 0.00 0.00 85 1009.5
20260505205603 10 319 11.3 19.3 0.00 0.00 0.00 85 1009.5
20260505205104 10 354 9.7 19.3 0.00 0.00 0.00 85 1009.5
20260505204603 10 12 11.3 20.9 0.00 0.00 0.00 85 1009.6
20260505204102 10 326 9.7 20.9 0.00 0.00 0.00 85 1009.7
20260505203603 10 335 9.7 20.9 0.00 0.00 0.00 85 1009.6
20260505203102 10 337 8.0 17.7 0.00 0.00 0.00 85 1009.6
20260505202602 10 339 8.0 16.1 0.00 0.00 0.00 85 1009.6
20260505201602 10 347 12.9 20.9 0.00 0.00 0.00 85 1009.6
20260505201102 10 344 11.3 22.5 0.00 0.00 0.00 85 1009.5
20260505200605 10 328 12.9 22.5 0.00 0.00 0.00 84 1009.4
20260505200105 10 2 8.0 17.7 0.00 0.00 0.00 84 1009.5
20260505195602 10 324 9.7 20.9 0.00 0.00 0.00 84 1009.5
20260505195102 10 6 12.9 20.9 0.00 0.00 0.00 84 1009.5
20260505194603 10 351 16.1 24.1 0.00 0.00 0.00 84 1009.4
20260505194104 10 349 11.3 24.1 0.00 0.00 0.00 84 1009.6
20260505193603 10 349 8.0 19.3 0.00 0.00 0.00 84 1009.5
20260505193104 10 357 9.7 17.7 0.00 0.00 0.00 84 1009.5
20260505192602 10 3 9.7 17.7 0.00 0.00 0.00 84 1009.4
20260505192103 10 357 8.0 19.3 0.00 0.00 0.00 84 1009.4
20260505191603 10 352 12.9 19.3 0.00 0.00 0.00 84 1009.3
20260505191102 10 326 9.7 16.1 0.00 0.00 0.00 85 1009.3
20260505190603 10 322 8.0 19.3 0.00 0.00 0.00 85 1009.2
20260505185602 10 23 9.7 19.3 0.00 0.00 0.00 85 1009.3
20260505185102 10 18 9.7 17.7 0.00 0.00 0.00 85 1009.3
20260505184604 10 349 9.7 17.7 0.00 0.00 0.00 85 1009.2
20260505184102 10 9 9.7 19.3 0.00 0.00 0.00 85 1009.2
20260505183602 11 20 9.7 19.3 0.00 0.00 0.00 84 1009.2
20260505183102 11 355 11.3 20.9 0.00 0.00 0.00 84 1009.2
20260505182602 11 350 11.3 20.9 0.00 0.00 0.00 84 1009.2
20260505182102 11 21 9.7 16.1 0.00 0.00 0.00 85 1009.1
20260505181602 11 339 8.0 19.3 0.00 0.00 0.00 85 1009.1
20260505181103 11 343 11.3 19.3 0.00 0.00 0.00 85 1009.1
20260505180603 11 342 11.3 20.9 0.00 0.00 0.00 85 1009.2
20260505180106 11 1 11.3 22.5 0.00 0.00 0.00 84 1009.1
20260505175602 11 36 12.9 22.5 0.00 0.00 0.00 84 1009.1
20260505175103 11 348 8.0 19.3 0.00 0.00 0.00 84 1009.3
20260505174602 11 6 12.9 19.3 0.00 0.03 0.00 84 1009.2
20260505174103 11 14 11.3 20.9 0.00 0.03 0.00 84 1009.3
20260505173602 11 312 12.9 20.9 0.00 0.03 0.00 84 1009.3
20260505173102 11 309 11.3 20.9 0.00 0.03 0.00 84 1009.1
20260505172602 11 15 12.9 20.9 0.00 0.03 0.00 83 1009.2
20260505172102 11 346 9.7 20.9 0.00 0.03 0.00 83 1009.2
20260505171602 11 345 14.5 20.9 0.00 0.03 0.00 83 1009.1
20260505171101 11 309 14.5 20.9 0.00 0.03 0.00 83 1009.3
20260505170603 11 14 8.0 20.9 0.00 0.03 0.00 83 1009.3
20260505165602 11 295 6.4 16.1 0.00 0.03 0.00 83 1009.3
20260505165102 11 318 9.7 16.1 0.00 0.03 0.00 83 1009.4
20260505164602 11 344 9.7 19.3 0.00 0.03 0.00 83 1009.5
20260505164103 11 17 11.3 19.3 0.00 0.03 0.00 83 1009.6
20260505163602 11 349 6.4 16.1 0.00 0.03 0.00 83 1009.5
20260505163103 11 7 8.0 17.7 0.00 0.03 0.00 83 1009.5
20260505162603 11 336 9.7 22.5 0.00 0.03 0.00 83 1009.5
20260505162102 11 328 11.3 22.5 0.00 0.03 0.00 83 1009.5
20260505161602 11 330 9.7 19.3 0.00 0.03 0.00 83 1009.4
20260505161102 11 349 12.9 17.7 0.00 0.03 0.00 83 1009.5
20260505160602 11 332 8.0 17.7 0.00 0.03 0.00 83 1009.5
20260505153059 12 20 8.0 17.7 0.00 0.03 0.00 82 1009.6
20260505152557 12 345 11.3 17.7 0.00 0.03 0.00 82 1009.6
20260505152056 12 344 8.0 19.3 0.00 0.03 0.00 81 1009.7
20260505151553 12 10 14.5 19.3 0.00 0.03 0.00 81 1009.8
20260505151052 12 345 4.8 19.3 0.00 0.03 0.00 82 1009.7
20260505150550 12 345 9.7 17.7 0.00 0.03 0.00 81 1009.7
20260505140523 12 355 9.7 17.7 0.00 0.03 0.00 81 1009.9
20260505124954 11 33 6.4 16.1 0.00 0.15 0.00 83 1010.4
20260505124453 11 41 6.4 14.5 0.00 0.15 0.00 83 1010.5
20260505123950 11 359 8.0 14.5 0.00 0.18 0.00 83 1010.5
20260505123449 12 33 4.8 14.5 0.00 0.20 0.00 83 1010.5
20260505122947 12 20 8.0 16.1 0.00 0.23 0.00 83 1010.5
20260505122446 12 328 6.4 22.5 0.00 0.23 0.00 82 1010.5
20260505121945 12 342 9.7 22.5 0.00 0.23 0.00 83 1010.5
20260505121441 12 348 12.9 20.9 0.00 0.23 0.00 83 1010.5
20260505120938 12 318 11.3 20.9 0.00 0.23 0.00 83 1010.4
20260505120436 12 341 8.0 19.3 0.00 0.23 0.00 83 1010.4
20260505115937 12 320 8.0 17.7 0.00 0.23 0.00 84 1010.4
20260505115435 12 342 9.7 22.5 0.00 0.23 0.00 83 1010.3
20260505114932 12 335 14.5 22.5 0.00 0.23 0.00 83 1010.4
20260505114432 11 347 9.7 24.1 0.00 0.23 0.00 83 1010.3
20260505113928 11 349 9.7 24.1 0.00 0.23 0.00 83 1010.3
20260505113426 11 333 8.0 17.7 0.00 0.23 0.00 84 1010.5
20260505112922 11 359 8.0 20.9 0.00 0.23 0.00 84 1010.6
20260505112420 11 344 12.9 20.9 0.00 0.23 0.00 84 1010.7
20260505111920 11 5 11.3 17.7 0.00 0.23 0.00 84 1010.7
20260505111418 11 17 8.0 17.7 0.00 0.23 0.00 84 1010.7
20260505110915 11 33 9.7 22.5 0.00 0.23 0.00 84 1010.7
20260505110414 11 10 9.7 22.5 0.00 0.23 0.00 84 1010.8